Group_ship,Cruise,JD_GMT,Date_DDMMYYYY,TIME_HH:MM:SS,Lat_dec_degree,Long_dec_degree,xCO2eq_ppm,xCO2a_ppm,Pres_Equi_hPa,Pres_sealevel_hPa,EqTemp_C,SST(TSG)_C,Sal(TSG)_Permil,Water_flow_l/min,Gasflow_IR_ml/min,Temp_IR_C,Pres_IR_hPa,Ship_heading_true_degree,Ship_speed_knot,Wind_dir_rel_degree,Wind_speed_rel_m/s,fCO2W@SST_uatm,Qcflag_water,fCO2a_uatm,Qcflag_air,dfCO2_uatm,Fluoro_ug/l,Wind_speed_true_m/s,Wind_dir_true_degree,Air_temp_C,Oxygen
AOML_Explorer,Ex0703W,15.015,15012007,0:21:40,25.421,-80.006,364.66,-9.00,1021.40,1017.60,25.95,26.25,36.03,1.88,97.04,31.70,1021.40,180.80,18.90,296.00,11.84,358.94,2,-9.00,9,-9.00,0.07,11.77,66.81,23.26,231.499452
AOML_Explorer,Ex0703W,15.017,15012007,0:24:13,25.407,-80.006,365.14,-9.00,1021.40,1017.30,25.96,26.25,36.04,1.93,97.37,31.71,1021.40,181.30,18.80,296.00,12.87,359.22,2,-9.00,9,-9.00,0.08,12.51,70.86,23.23,231.351573
AOML_Explorer,Ex0703W,15.019,15012007,0:26:46,25.394,-80.007,365.90,-9.00,1021.38,1017.50,25.97,26.25,36.05,1.92,97.07,31.71,1021.38,181.40,18.80,299.00,11.84,359.82,2,-9.00,9,-9.00,0.07,11.34,69.45,23.29,231.086476
AOML_Explorer,Ex0703W,15.020,15012007,0:29:19,25.380,-80.007,366.06,-9.00,1021.39,1017.70,25.98,26.25,36.06,1.91,97.37,31.72,1021.39,180.90,18.90,303.00,12.87,359.90,2,-9.00,9,-9.00,0.08,11.34,75.76,23.3,231.051342
AOML_Explorer,Ex0703W,15.022,15012007,0:31:52,25.367,-80.007,366.73,-9.00,1021.38,1017.50,25.98,26.24,36.07,1.91,97.59,31.73,1021.38,180.80,18.90,304.00,13.90,360.39,2,-9.00,9,-9.00,0.08,11.98,79.64,23.34,231.112686
AOML_Explorer,Ex0703W,15.024,15012007,0:34:25,25.353,-80.007,366.98,-9.00,1021.35,1017.40,25.98,26.21,36.07,1.90,97.46,31.74,1021.35,181.10,19.10,301.00,13.90,360.19,2,-9.00,9,-9.00,0.07,12.41,77.48,23.28,231.422296
AOML_Explorer,Ex0703W,15.026,15012007,0:36:58,25.340,-80.008,367.22,-9.00,1021.44,1017.50,25.96,26.15,36.08,1.91,97.74,31.75,1021.44,180.40,19.10,295.00,13.38,359.85,2,-9.00,9,-9.00,0.08,13.00,70.63,23.29,231.51182
AOML_Explorer,Ex0703W,15.027,15012007,0:39:31,25.326,-80.008,366.83,-9.00,1021.45,1018.00,25.93,26.16,36.07,1.94,98.04,31.76,1021.45,180.30,19.10,303.00,11.84,360.08,2,-9.00,9,-9.00,0.08,10.60,71.01,23.26,231.313867
AOML_Explorer,Ex0703W,15.029,15012007,0:42:04,25.313,-80.008,366.56,-9.00,1021.41,1017.30,25.90,26.14,36.09,1.89,97.99,31.77,1021.41,180.60,19.10,298.00,13.38,360.10,2,-9.00,9,-9.00,0.07,12.52,72.91,23.33,231.320405
AOML_Explorer,Ex0703W,15.031,15012007,0:44:37,25.299,-80.008,366.40,-9.00,1021.41,1017.70,25.90,26.13,36.10,1.90,97.95,31.78,1021.41,180.60,19.00,292.00,12.87,359.82,2,-9.00,9,-9.00,0.07,13.14,67.03,23.26,231.24131
AOML_Explorer,Ex0703W,15.033,15012007,0:47:10,25.286,-80.008,367.19,-9.00,1021.57,1017.80,25.89,26.14,36.10,1.89,98.41,31.79,1021.57,181.30,19.10,298.00,12.87,360.89,2,-9.00,9,-9.00,0.08,12.15,71.96,23.32,230.972754
AOML_Explorer,Ex0703W,15.035,15012007,0:49:43,25.272,-80.009,367.03,-9.00,1021.41,1017.30,25.88,26.14,36.10,1.93,97.92,31.80,1021.41,180.60,19.10,298.00,13.90,360.83,2,-9.00,9,-9.00,0.08,12.94,74.67,23.37,230.746627
AOML_Explorer,Ex0703W,15.036,15012007,0:52:16,25.258,-80.009,367.12,-9.00,1021.41,1017.50,25.88,26.12,36.10,1.90,97.63,31.81,1021.41,179.80,19.10,293.00,13.38,360.48,2,-9.00,9,-9.00,0.07,13.28,68.70,23.36,231.284138
AOML_Explorer,Ex0703W,15.038,15012007,0:54:49,25.245,-80.009,367.40,-9.00,1021.47,1017.60,25.89,26.16,36.09,1.90,98.26,31.82,1021.47,180.20,19.10,301.00,13.90,361.32,2,-9.00,9,-9.00,0.07,12.30,77.18,23.39,231.825378
AOML_Explorer,Ex0703W,15.040,15012007,0:57:22,25.231,-80.009,366.96,-9.00,1021.33,1017.60,25.87,26.17,36.10,1.89,97.89,31.82,1021.33,180.70,19.10,292.00,13.90,361.30,2,-9.00,9,-9.00,0.07,13.83,70.21,23.31,231.70097
AOML_Explorer,Ex0703W,15.042,15012007,0:59:55,25.218,-80.009,366.69,-9.00,1021.52,1017.60,25.90,26.14,36.10,1.90,98.39,31.83,1021.52,179.90,19.20,298.00,13.38,360.19,2,-9.00,9,-9.00,0.07,12.44,72.54,23.3,231.934225
AOML_Explorer,Ex0703W,15.057,15012007,1:21:40,25.104,-80.019,366.34,-9.00,1021.69,1018.30,25.99,26.29,36.08,1.89,97.44,31.90,1021.69,196.30,19.00,293.00,10.81,360.76,2,-9.00,9,-9.00,0.07,11.62,76.26,23.44,231.755007
AOML_Explorer,Ex0703W,15.058,15012007,1:24:13,25.091,-80.023,366.68,-9.00,1021.67,1017.70,26.01,26.26,36.07,1.92,97.34,31.90,1021.67,195.30,19.10,297.00,11.84,360.23,2,-9.00,9,-9.00,0.06,11.51,82.14,23.57,231.887183
AOML_Explorer,Ex0703W,15.060,15012007,1:26:46,25.078,-80.027,367.07,-9.00,1021.61,1017.90,26.02,26.27,36.06,1.87,97.58,31.90,1021.61,196.10,19.10,299.00,12.87,360.71,2,-9.00,9,-9.00,0.06,11.94,87.84,23.52,232.144328
AOML_Explorer,Ex0703W,15.062,15012007,1:29:19,25.065,-80.031,366.58,-9.00,1021.63,1018.00,26.00,26.27,36.07,1.90,97.40,31.90,1021.63,195.20,19.00,297.00,11.84,360.53,2,-9.00,9,-9.00,0.06,11.50,82.25,23.63,231.873213
AOML_Explorer,Ex0703W,15.064,15012007,1:31:52,25.052,-80.035,366.36,-9.00,1021.60,1017.80,26.01,26.28,36.06,1.90,97.97,31.91,1021.60,198.20,18.90,284.00,10.29,360.24,2,-9.00,9,-9.00,0.06,12.38,72.08,23.63,231.922268
AOML_Explorer,Ex0703W,15.066,15012007,1:34:25,25.039,-80.040,366.29,-9.00,1021.51,1018.10,26.01,26.29,36.07,1.91,97.50,31.91,1021.51,197.10,19.00,290.00,10.81,360.21,2,-9.00,9,-9.00,0.07,11.85,76.25,23.61,231.752559
AOML_Explorer,Ex0703W,15.067,15012007,1:36:58,25.026,-80.044,366.62,-9.00,1021.62,1017.80,26.02,26.27,36.08,1.92,97.64,31.92,1021.62,196.80,19.00,301.00,10.81,360.26,2,-9.00,9,-9.00,0.07,10.15,82.45,23.68,231.697171
AOML_Explorer,Ex0703W,15.069,15012007,1:39:31,25.013,-80.048,366.66,-9.00,1021.58,1017.70,26.02,26.19,36.11,1.90,97.33,31.93,1021.58,196.80,18.90,296.00,11.84,359.15,2,-9.00,9,-9.00,0.06,11.58,83.77,23.67,231.778128
AOML_Explorer,Ex0703W,15.071,15012007,1:42:04,25.000,-80.053,366.94,-9.00,1021.46,1017.90,25.99,26.14,36.11,1.91,97.87,31.93,1021.46,197.00,18.90,279.00,10.81,358.98,2,-9.00,9,-9.00,0.07,13.33,70.04,23.82,231.754678
AOML_Explorer,Ex0703W,15.073,15012007,1:44:37,24.988,-80.057,366.98,-9.00,1021.58,1017.90,25.93,26.12,36.11,1.92,98.21,31.94,1021.58,196.80,18.80,294.00,12.35,359.69,2,-9.00,9,-9.00,0.06,12.18,84.51,23.72,231.802818
AOML_Explorer,Ex0703W,15.074,15012007,1:47:10,24.975,-80.062,366.84,-9.00,1021.52,1018.00,25.88,26.14,36.11,1.90,98.00,31.94,1021.52,200.00,18.70,289.00,11.32,360.60,2,-9.00,9,-9.00,0.07,12.26,80.90,23.91,231.717655
AOML_Explorer,Ex0703W,15.076,15012007,1:49:43,24.962,-80.067,366.71,-9.00,1021.71,1017.90,25.88,26.16,36.11,1.93,97.97,31.95,1021.71,200.30,18.80,291.00,12.35,360.95,2,-9.00,9,-9.00,0.06,12.74,85.43,23.86,231.514284
AOML_Explorer,Ex0703W,15.078,15012007,1:52:16,24.950,-80.072,366.54,-9.00,1021.50,1017.50,25.89,26.22,36.10,1.92,98.11,31.95,1021.50,200.70,19.00,297.00,12.35,361.38,2,-9.00,9,-9.00,0.07,11.85,89.58,23.8,231.153972
AOML_Explorer,Ex0703W,15.080,15012007,1:54:49,24.937,-80.077,366.83,-9.00,1021.48,1018.00,25.91,26.26,36.11,1.87,98.22,31.95,1021.48,200.40,19.00,295.00,11.32,361.78,2,-9.00,9,-9.00,0.07,11.43,84.40,23.71,231.229255
AOML_Explorer,Ex0703W,15.082,15012007,1:57:22,24.925,-80.083,367.39,-9.00,1021.46,1017.60,25.97,26.24,36.11,1.86,98.01,31.95,1021.46,201.10,19.10,296.00,10.81,361.32,2,-9.00,9,-9.00,0.07,11.07,83.05,23.91,231.372426
AOML_Explorer,Ex0703W,15.083,15012007,1:59:55,24.912,-80.088,368.05,-9.00,1021.59,1018.10,25.99,26.16,36.13,1.86,97.98,31.95,1021.59,200.40,19.20,291.00,10.81,360.55,2,-9.00,9,-9.00,0.07,11.84,79.25,23.89,231.870377
AOML_Explorer,Ex0703W,15.098,15012007,2:21:40,24.811,-80.141,368.40,-9.00,1021.73,1019.00,25.93,26.18,36.13,1.79,97.29,31.95,1021.73,235.00,18.60,289.00,5.66,362.06,2,-9.00,9,-9.00,0.08,9.38,89.73,23.94,229.721792
AOML_Explorer,Ex0703W,15.100,15012007,2:24:13,24.804,-80.153,369.21,-9.00,1021.83,1019.00,25.91,26.22,36.11,1.80,97.55,31.94,1021.83,238.50,18.60,264.00,5.66,363.79,2,-9.00,9,-9.00,0.07,11.67,87.19,23.95,230.730583
AOML_Explorer,Ex0703W,15.102,15012007,2:26:46,24.797,-80.166,369.32,-9.00,1021.76,1019.00,25.93,26.27,36.11,1.91,97.77,31.94,1021.76,236.20,18.40,282.00,5.66,364.40,2,-9.00,9,-9.00,0.09,10.08,89.67,23.81,229.153529
AOML_Explorer,Ex0703W,15.104,15012007,2:29:19,24.790,-80.178,368.92,-9.00,1021.81,1018.90,25.96,26.30,36.11,1.88,97.49,31.93,1021.81,236.80,18.40,265.00,6.69,363.93,2,-9.00,9,-9.00,0.09,12.19,89.94,23.77,229.722881
AOML_Explorer,Ex0703W,15.105,15012007,2:31:52,24.783,-80.190,370.21,-9.00,1021.87,1019.00,26.01,26.29,36.11,1.91,97.82,31.93,1021.87,236.30,18.60,272.00,5.66,364.26,2,-9.00,9,-9.00,0.09,10.99,87.08,23.89,230.083463
AOML_Explorer,Ex0703W,15.107,15012007,2:34:25,24.776,-80.202,370.47,-9.00,1021.86,1018.90,26.02,26.27,36.11,1.88,97.73,31.93,1021.86,236.00,18.60,279.00,5.15,363.99,2,-9.00,9,-9.00,0.08,10.22,85.92,23.96,230.535755
AOML_Explorer,Ex0703W,15.109,15012007,2:36:58,24.768,-80.214,370.07,-9.00,1021.83,1018.80,26.01,26.23,36.11,1.89,97.88,31.92,1021.83,236.40,18.70,277.00,7.21,363.21,2,-9.00,9,-9.00,0.08,11.45,95.17,23.92,230.757462
AOML_Explorer,Ex0703W,15.111,15012007,2:39:31,24.761,-80.226,369.68,-9.00,1021.88,1019.10,25.99,26.20,36.12,1.88,97.94,31.92,1021.88,236.80,18.80,283.00,4.63,362.66,2,-9.00,9,-9.00,0.08,9.88,84.28,23.88,231.010077
AOML_Explorer,Ex0703W,15.113,15012007,2:42:04,24.754,-80.238,369.17,-9.00,1021.87,1019.10,25.97,26.18,36.12,1.88,97.90,31.92,1021.87,235.20,18.70,266.00,5.15,362.28,2,-9.00,9,-9.00,0.08,11.23,82.40,23.93,231.055279
AOML_Explorer,Ex0703W,15.114,15012007,2:44:37,24.746,-80.251,368.83,-9.00,1021.88,1019.00,25.93,26.19,36.12,1.89,97.66,31.92,1021.88,236.20,18.80,278.00,5.15,362.64,2,-9.00,9,-9.00,0.07,10.40,85.62,23.94,231.155949
AOML_Explorer,Ex0703W,15.116,15012007,2:47:10,24.739,-80.263,368.37,-9.00,1021.91,1019.10,25.93,26.19,36.13,1.86,97.59,31.92,1021.91,236.10,18.90,287.00,4.63,362.25,2,-9.00,9,-9.00,0.08,9.56,83.88,23.96,231.416918
AOML_Explorer,Ex0703W,15.118,15012007,2:49:43,24.731,-80.275,368.05,-9.00,1021.81,1018.90,25.94,26.20,36.12,1.88,97.68,31.91,1021.81,236.20,18.90,267.00,7.21,361.97,2,-9.00,9,-9.00,0.07,12.52,91.15,23.97,231.550113
AOML_Explorer,Ex0703W,15.120,15012007,2:52:16,24.724,-80.287,368.02,-9.00,1021.90,1019.00,25.93,26.16,36.13,1.88,98.46,31.91,1021.90,235.60,19.00,278.00,6.69,361.44,2,-9.00,9,-9.00,0.07,11.08,92.34,23.91,231.769011
AOML_Explorer,Ex0703W,15.121,15012007,2:54:49,24.716,-80.300,367.83,-9.00,1021.80,1018.80,25.94,26.08,36.19,1.89,98.82,31.91,1021.80,236.10,18.80,290.00,7.21,359.92,2,-9.00,9,-9.00,0.09,10.04,98.91,23.94,230.898759
AOML_Explorer,Ex0703W,15.123,15012007,2:57:22,24.709,-80.312,367.55,-9.00,1021.87,1018.90,25.90,26.08,36.19,1.91,98.48,31.91,1021.87,236.60,18.80,268.00,6.18,360.17,2,-9.00,9,-9.00,0.10,11.79,88.14,23.98,230.737922
AOML_Explorer,Ex0703W,15.125,15012007,2:59:55,24.702,-80.324,368.08,-9.00,1021.82,1018.90,25.84,26.07,36.21,1.89,98.30,31.90,1021.82,236.50,18.70,271.00,6.18,361.55,2,-9.00,9,-9.00,0.10,11.48,89.04,23.98,230.811651
AOML_Explorer,Ex0703W,15.140,15012007,3:21:40,24.637,-80.430,370.58,-9.00,1021.55,1018.60,25.81,26.07,36.20,1.90,97.44,31.87,1021.55,235.70,19.10,292.00,7.72,364.24,2,-9.00,9,-9.00,0.09,10.11,101.24,24.18,231.037752
AOML_Explorer,Ex0703W,15.142,15012007,3:24:13,24.630,-80.442,370.41,-9.00,1021.51,1018.50,25.82,26.08,36.18,1.89,97.46,31.87,1021.51,235.90,19.10,288.00,8.24,364.06,2,-9.00,9,-9.00,0.09,10.84,102.43,24,231.301744
AOML_Explorer,Ex0703W,15.144,15012007,3:26:46,24.622,-80.454,369.42,-9.00,1021.67,1018.50,25.82,26.09,36.17,1.88,97.77,31.86,1021.67,236.20,19.10,279.00,8.24,363.45,2,-9.00,9,-9.00,0.09,11.91,99.31,24.17,231.366655
AOML_Explorer,Ex0703W,15.145,15012007,3:29:19,24.615,-80.467,368.52,-9.00,1021.53,1018.40,25.83,26.13,36.17,1.90,97.70,31.86,1021.53,236.40,19.00,278.00,8.24,362.85,2,-9.00,9,-9.00,0.09,12.02,99.27,24.09,230.766781
AOML_Explorer,Ex0703W,15.147,15012007,3:31:52,24.608,-80.479,368.14,-9.00,1021.54,1018.60,25.85,26.14,36.17,1.91,98.49,31.85,1021.54,241.50,19.10,272.00,7.21,362.42,2,-9.00,9,-9.00,0.09,12.09,98.09,24.11,230.786816
AOML_Explorer,Ex0703W,15.149,15012007,3:34:25,24.602,-80.493,368.43,-9.00,1021.59,1018.70,25.87,26.15,36.16,1.91,98.19,31.85,1021.59,246.10,18.90,262.00,4.63,362.48,2,-9.00,9,-9.00,0.08,11.51,89.41,24.18,231.469445
AOML_Explorer,Ex0703W,15.151,15012007,3:36:58,24.596,-80.506,368.46,-9.00,1021.63,1018.90,25.88,26.19,36.14,1.93,98.12,31.85,1021.63,247.40,19.00,294.00,3.09,362.94,2,-9.00,9,-9.00,0.07,9.07,85.76,24.13,231.749873
AOML_Explorer,Ex0703W,15.152,15012007,3:39:31,24.591,-80.520,367.89,-9.00,1021.50,1018.40,25.90,26.24,36.12,1.86,98.03,31.84,1021.50,246.60,18.90,270.00,6.18,362.72,2,-9.00,9,-9.00,0.07,11.72,98.38,24.18,231.497134
AOML_Explorer,Ex0703W,15.154,15012007,3:42:04,24.586,-80.533,367.39,-9.00,1021.52,1018.60,25.93,26.27,36.11,1.91,98.30,31.84,1021.52,247.10,18.80,272.00,6.18,362.35,2,-9.00,9,-9.00,0.07,11.48,99.65,24.15,231.274596
AOML_Explorer,Ex0703W,15.156,15012007,3:44:37,24.581,-80.547,367.46,-9.00,1021.44,1018.50,25.97,26.31,36.10,1.93,98.80,31.84,1021.44,247.10,18.90,254.00,5.15,362.22,2,-9.00,9,-9.00,0.07,12.34,90.34,24.14,231.17107
AOML_Explorer,Ex0703W,15.158,15012007,3:47:10,24.575,-80.561,367.63,-9.00,1021.34,1018.40,26.01,26.32,36.11,1.91,98.91,31.83,1021.34,246.60,18.60,270.00,5.66,361.97,2,-9.00,9,-9.00,0.07,11.29,96.67,24.08,231.107316
AOML_Explorer,Ex0703W,15.160,15012007,3:49:43,24.570,-80.574,367.98,-9.00,1021.31,1018.60,26.03,26.32,36.11,1.90,98.52,31.83,1021.31,247.20,18.60,270.00,5.66,361.91,2,-9.00,9,-9.00,0.07,11.28,97.31,24.12,230.829757
AOML_Explorer,Ex0703W,15.161,15012007,3:52:16,24.565,-80.587,368.08,-9.00,1021.29,1018.50,26.04,26.31,36.11,1.91,98.34,31.83,1021.29,247.00,18.80,268.00,5.15,361.83,2,-9.00,9,-9.00,0.08,11.28,94.07,24.11,231.004388
AOML_Explorer,Ex0703W,15.163,15012007,3:54:49,24.560,-80.601,368.25,-9.00,1021.30,1018.50,26.04,26.32,36.11,1.92,98.60,31.83,1021.30,247.50,18.60,270.00,4.12,362.12,2,-9.00,9,-9.00,0.07,10.57,90.42,24.18,230.976092
AOML_Explorer,Ex0703W,15.165,15012007,3:57:22,24.555,-80.614,368.35,-9.00,1021.36,1018.40,26.05,26.33,36.11,1.92,98.36,31.82,1021.36,246.90,18.90,295.00,4.63,362.33,2,-9.00,9,-9.00,0.07,8.99,95.21,24.1,231.16424
AOML_Explorer,Ex0703W,15.167,15012007,3:59:55,24.549,-80.628,368.27,-9.00,1021.19,1018.40,26.05,26.35,36.10,1.89,98.45,31.82,1021.19,246.30,19.10,277.00,6.69,362.35,2,-9.00,9,-9.00,0.07,11.47,101.86,24.06,230.978937
AOML_Explorer,Ex0703W,15.182,15012007,4:21:40,24.489,-80.738,370.44,-9.00,1020.88,1018.00,26.14,26.39,36.11,1.87,97.58,31.80,1020.88,238.20,19.50,277.00,6.18,363.60,2,-9.00,9,-9.00,0.07,11.27,91.37,24.11,230.522123
AOML_Explorer,Ex0703W,15.183,15012007,4:24:13,24.482,-80.751,370.43,-9.00,1020.88,1018.00,26.13,26.36,36.11,1.86,97.81,31.79,1020.88,238.40,19.40,279.00,5.66,363.44,2,-9.00,9,-9.00,0.07,10.82,89.76,24.14,230.674792
AOML_Explorer,Ex0703W,15.185,15012007,4:26:46,24.475,-80.764,370.39,-9.00,1020.80,1017.80,26.11,26.34,36.11,1.88,97.45,31.79,1020.80,238.40,19.40,261.00,6.69,363.29,2,-9.00,9,-9.00,0.07,12.98,88.87,24.12,230.831595
AOML_Explorer,Ex0703W,15.187,15012007,4:29:19,24.467,-80.777,370.23,-9.00,1020.74,1018.00,26.08,26.38,36.09,1.89,97.58,31.78,1020.74,238.40,19.50,261.00,5.66,364.09,2,-9.00,9,-9.00,0.08,12.40,85.05,24.06,230.202692
AOML_Explorer,Ex0703W,15.189,15012007,4:31:52,24.460,-80.790,370.10,-9.00,1020.76,1017.70,26.08,26.40,36.09,1.87,97.35,31.78,1020.76,239.00,19.40,277.00,7.21,364.29,2,-9.00,9,-9.00,0.08,11.77,96.48,24.2,230.175328
AOML_Explorer,Ex0703W,15.191,15012007,4:34:25,24.453,-80.802,370.80,-9.00,1020.81,1017.80,26.11,26.40,36.09,1.85,98.17,31.78,1020.81,238.90,19.40,281.00,6.69,364.47,2,-9.00,9,-9.00,0.07,11.10,95.52,24.21,230.78411
AOML_Explorer,Ex0703W,15.192,15012007,4:36:58,24.446,-80.815,371.14,-9.00,1020.75,1017.70,26.13,26.37,36.08,1.87,98.21,31.78,1020.75,239.10,19.40,272.00,6.18,364.19,2,-9.00,9,-9.00,0.07,11.76,90.79,24.19,231.116522
AOML_Explorer,Ex0703W,15.194,15012007,4:39:31,24.439,-80.828,370.75,-9.00,1020.71,1017.90,26.12,26.36,36.08,1.86,97.75,31.77,1020.71,239.80,19.40,284.00,4.63,363.73,2,-9.00,9,-9.00,0.06,10.12,86.43,24.11,231.180065
AOML_Explorer,Ex0703W,15.196,15012007,4:42:04,24.432,-80.842,369.99,-9.00,1020.69,1017.70,26.10,26.41,36.08,1.84,98.22,31.77,1020.69,239.00,19.40,271.00,7.21,363.97,2,-9.00,9,-9.00,0.08,12.48,94.25,24.13,230.28596
AOML_Explorer,Ex0703W,15.198,15012007,4:44:37,24.425,-80.855,369.56,-9.00,1020.69,1017.80,26.09,26.36,36.12,1.87,98.04,31.77,1020.69,239.50,19.40,274.00,5.66,362.90,2,-9.00,9,-9.00,0.06,11.38,89.33,24.22,231.07034
AOML_Explorer,Ex0703W,15.199,15012007,4:47:10,24.418,-80.867,370.78,-9.00,1020.69,1017.80,26.13,26.26,36.12,1.88,98.68,31.77,1020.69,239.90,19.40,274.00,6.69,362.13,2,-9.00,9,-9.00,0.06,11.87,94.20,24.24,232.068064
AOML_Explorer,Ex0703W,15.201,15012007,4:49:43,24.411,-80.880,370.73,-9.00,1020.66,1017.70,26.08,26.16,36.10,1.85,98.18,31.77,1020.66,239.00,19.30,270.00,6.18,361.31,2,-9.00,9,-9.00,0.06,11.90,90.14,24.08,232.53017
AOML_Explorer,Ex0703W,15.203,15012007,4:52:16,24.404,-80.893,369.93,-9.00,1020.53,1017.50,25.97,26.23,36.09,1.85,98.46,31.77,1020.53,239.10,19.30,281.00,6.18,363.23,2,-9.00,9,-9.00,0.06,10.88,93.23,24.13,232.442771
AOML_Explorer,Ex0703W,15.205,15012007,4:54:49,24.397,-80.906,367.81,-9.00,1020.22,1017.50,25.94,26.28,36.08,1.86,98.48,31.76,1020.22,239.30,19.30,283.00,6.18,362.31,2,-9.00,9,-9.00,0.06,10.68,93.94,24.17,232.368044
AOML_Explorer,Ex0703W,15.207,15012007,4:57:22,24.390,-80.919,366.30,-9.00,1020.26,1017.50,25.98,26.31,36.08,1.87,98.33,31.76,1020.26,239.60,19.40,289.00,6.18,360.49,2,-9.00,9,-9.00,0.06,10.15,95.22,24.05,232.527363
AOML_Explorer,Ex0703W,15.208,15012007,4:59:55,24.384,-80.932,366.11,-9.00,1020.19,1017.70,26.02,26.32,36.07,1.84,98.64,31.76,1020.19,239.80,19.40,264.00,6.18,359.89,2,-9.00,9,-9.00,0.06,12.51,88.92,24.06,232.371677
AOML_Explorer,Ex0703W,15.223,15012007,5:21:40,24.325,-81.045,367.60,-9.00,1019.89,1017.30,26.11,26.38,36.11,1.87,97.88,31.73,1019.89,240.40,19.60,265.00,5.66,360.66,2,-9.00,9,-9.00,0.06,12.28,87.51,24.23,232.232479
AOML_Explorer,Ex0703W,15.225,15012007,5:24:13,24.318,-81.058,367.75,-9.00,1019.82,1017.20,26.12,26.35,36.12,1.91,97.57,31.72,1019.82,240.50,19.70,271.00,7.21,360.37,2,-9.00,9,-9.00,0.06,12.69,95.06,24.16,232.211275
AOML_Explorer,Ex0703W,15.227,15012007,5:26:46,24.311,-81.071,367.54,-9.00,1019.84,1016.80,26.10,26.31,36.12,1.87,97.48,31.71,1019.84,240.50,19.80,280.00,7.72,359.77,2,-9.00,9,-9.00,0.06,12.05,100.02,24.16,232.488492
AOML_Explorer,Ex0703W,15.229,15012007,5:29:19,24.305,-81.085,367.29,-9.00,1019.80,1017.20,26.07,26.28,36.12,1.88,97.70,31.70,1019.80,240.30,19.70,271.00,6.18,359.55,2,-9.00,9,-9.00,0.06,12.09,90.98,24.22,232.379069
AOML_Explorer,Ex0703W,15.230,15012007,5:31:52,24.298,-81.098,367.21,-9.00,1019.75,1017.10,26.04,26.26,36.12,1.89,97.54,31.69,1019.75,240.80,19.90,267.00,6.69,359.64,2,-9.00,9,-9.00,0.06,12.86,91.93,24.22,232.464517
AOML_Explorer,Ex0703W,15.232,15012007,5:34:25,24.291,-81.112,367.17,-9.00,1019.82,1017.10,26.01,26.21,36.12,1.88,97.67,31.68,1019.82,240.00,19.80,289.00,6.69,359.36,2,-9.00,9,-9.00,0.06,10.57,97.55,24.18,232.43108
AOML_Explorer,Ex0703W,15.234,15012007,5:36:58,24.284,-81.125,367.36,-9.00,1019.76,1017.10,25.99,26.16,36.11,1.87,97.84,31.67,1019.76,240.20,19.90,282.00,6.18,359.20,2,-9.00,9,-9.00,0.06,11.16,93.39,24.17,232.422799
AOML_Explorer,Ex0703W,15.236,15012007,5:39:31,24.277,-81.139,367.48,-9.00,1019.79,1017.10,25.95,26.14,36.11,1.87,97.55,31.66,1019.79,240.90,20.20,300.00,6.69,359.62,2,-9.00,9,-9.00,0.06,9.50,99.87,24.26,232.398918
AOML_Explorer,Ex0703W,15.238,15012007,5:42:04,24.270,-81.152,367.65,-9.00,1019.71,1016.90,25.91,26.11,36.11,1.87,97.81,31.65,1019.71,240.80,19.90,291.00,7.21,359.80,2,-9.00,9,-9.00,0.06,10.64,101.11,24.2,232.468462
AOML_Explorer,Ex0703W,15.239,15012007,5:44:37,24.263,-81.166,367.27,-9.00,1019.75,1017.10,25.88,26.07,36.12,1.88,98.54,31.65,1019.75,240.60,20.00,281.00,6.18,359.34,2,-9.00,9,-9.00,0.06,11.31,93.40,24.26,232.559921
AOML_Explorer,Ex0703W,15.241,15012007,5:47:10,24.256,-81.180,366.35,-9.00,1019.71,1017.00,25.86,26.03,36.12,1.87,98.27,31.64,1019.71,240.90,20.10,284.00,6.69,358.33,2,-9.00,9,-9.00,0.05,11.21,96.83,24.35,232.627071
AOML_Explorer,Ex0703W,15.243,15012007,5:49:43,24.249,-81.193,365.75,-9.00,1019.68,1016.90,25.82,25.99,36.13,1.88,98.60,31.63,1019.68,240.70,20.00,287.00,8.24,357.63,2,-9.00,9,-9.00,0.05,11.65,104.25,24.36,232.624296
AOML_Explorer,Ex0703W,15.245,15012007,5:52:16,24.242,-81.207,365.49,-9.00,1019.66,1017.00,25.79,25.95,36.13,1.90,98.53,31.62,1019.66,241.10,20.20,272.00,6.69,357.28,2,-9.00,9,-9.00,0.05,12.51,93.30,24.28,232.683702
AOML_Explorer,Ex0703W,15.246,15012007,5:54:49,24.235,-81.221,365.38,-9.00,1019.58,1016.60,25.75,25.89,36.14,1.88,98.49,31.62,1019.58,241.20,20.10,293.00,6.69,356.77,2,-9.00,9,-9.00,0.05,10.37,98.90,24.3,232.80929
AOML_Explorer,Ex0703W,15.248,15012007,5:57:22,24.228,-81.235,365.17,-9.00,1019.59,1016.60,25.71,25.79,36.16,1.89,98.51,31.61,1019.59,241.00,20.30,285.00,7.72,355.86,2,-9.00,9,-9.00,0.05,11.77,101.22,24.3,232.810645
AOML_Explorer,Ex0703W,15.250,15012007,5:59:55,24.221,-81.249,364.94,-9.00,1019.55,1016.90,25.65,25.66,36.18,1.86,98.28,31.61,1019.55,241.00,20.30,290.00,7.21,354.59,2,-9.00,9,-9.00,0.05,10.94,100.30,24.3,232.938961
AOML_Explorer,Ex0703W,15.265,15012007,6:21:40,24.164,-81.370,362.91,-9.00,1019.21,1016.50,25.32,25.57,36.20,1.87,97.32,31.61,1019.21,243.30,21.00,293.00,6.18,356.19,2,-9.00,9,-9.00,0.06,10.39,97.11,24.31,233.179131
AOML_Explorer,Ex0703W,15.267,15012007,6:24:13,24.158,-81.385,365.08,-9.00,1019.21,1016.30,25.37,25.48,36.21,1.90,97.53,31.61,1019.21,243.40,21.20,292.00,8.24,356.24,2,-9.00,9,-9.00,0.06,11.25,106.99,24.35,233.303128
AOML_Explorer,Ex0703W,15.269,15012007,6:26:46,24.151,-81.400,365.74,-9.00,1019.15,1016.50,25.33,25.30,36.24,1.89,97.33,31.60,1019.15,243.30,21.20,291.00,7.72,354.77,2,-9.00,9,-9.00,0.05,11.19,104.17,24.17,233.785111
AOML_Explorer,Ex0703W,15.270,15012007,6:29:19,24.144,-81.414,365.81,-9.00,1019.17,1016.40,25.25,25.02,36.26,1.89,98.06,31.59,1019.17,243.50,21.40,289.00,7.21,352.19,2,-9.00,9,-9.00,0.05,11.33,101.10,24.2,234.601231
AOML_Explorer,Ex0703W,15.272,15012007,6:31:52,24.137,-81.429,364.42,-9.00,1019.16,1016.30,25.07,24.85,36.22,1.93,98.05,31.59,1019.16,243.80,21.30,290.00,6.69,350.98,2,-9.00,9,-9.00,0.05,10.99,99.30,24.18,234.542751
AOML_Explorer,Ex0703W,15.274,15012007,6:34:25,24.131,-81.444,361.28,-9.00,1019.06,1016.30,24.81,24.96,36.20,1.89,98.85,31.58,1019.06,243.40,21.10,265.00,7.21,353.35,2,-9.00,9,-9.00,0.05,13.80,94.56,24.22,234.108919
AOML_Explorer,Ex0703W,15.276,15012007,6:36:58,24.124,-81.459,358.40,-9.00,1019.09,1016.30,24.74,24.97,36.21,1.90,98.40,31.57,1019.09,243.80,21.10,278.00,6.69,351.78,2,-9.00,9,-9.00,0.05,12.21,96.86,24.21,234.403544
AOML_Explorer,Ex0703W,15.277,15012007,6:39:31,24.117,-81.474,357.76,-9.00,1019.01,1016.20,24.80,24.96,36.23,1.88,98.55,31.56,1019.01,243.50,21.10,284.00,7.72,350.16,2,-9.00,9,-9.00,0.05,12.00,102.57,24.14,234.677201
AOML_Explorer,Ex0703W,15.279,15012007,6:42:04,24.111,-81.488,357.80,-9.00,1018.94,1016.10,24.81,24.91,36.23,1.89,98.03,31.56,1018.94,243.70,21.20,286.00,9.26,349.30,2,-9.00,9,-9.00,0.05,12.62,109.47,24.13,234.719652
AOML_Explorer,Ex0703W,15.281,15012007,6:44:37,24.104,-81.503,357.85,-9.00,1018.94,1016.20,24.80,24.91,36.23,1.90,98.38,31.56,1018.94,243.60,21.20,302.00,7.21,349.45,2,-9.00,9,-9.00,0.05,9.73,103.96,24.24,234.659416
AOML_Explorer,Ex0703W,15.283,15012007,6:47:10,24.098,-81.518,357.48,-9.00,1018.99,1016.20,24.76,24.87,36.25,1.89,98.72,31.55,1018.99,244.00,21.20,294.00,7.21,349.13,2,-9.00,9,-9.00,0.05,10.67,102.99,24.27,234.922557
AOML_Explorer,Ex0703W,15.285,15012007,6:49:43,24.091,-81.533,357.30,-9.00,1018.89,1016.10,24.76,24.76,36.26,1.90,98.32,31.55,1018.89,243.00,21.20,296.00,9.26,347.42,2,-9.00,9,-9.00,0.05,11.19,112.55,24.12,235.15899
AOML_Explorer,Ex0703W,15.286,15012007,6:52:16,24.084,-81.548,357.11,-9.00,1018.91,1016.00,24.70,24.63,36.29,1.89,98.75,31.55,1018.91,243.50,21.40,292.00,8.24,346.29,2,-9.00,9,-9.00,0.05,11.37,106.64,24.14,235.30041